Regional Weather Roundup
Issued by NWS Charleston, WV

Home | Current Version | Previous Version | Graphics & Text | Print | Product List | Glossary On
Versions: 1 2 3 4 5 6 7 8 9 10 11 12 13 14 15 16 17 18 19 20 21 22 23 24 25 26 27 28 29 30 31 32 33 34 35 36 37 38 39 40 41 42 43 44 45 46 47 48 49 50
000
ASUS41 KRLX 040210
RWRRLX
West Virginia Regional Weather Roundup
National Weather Service Charleston WV
1000 PM EDT FRI JUL 03 2015

Note: "fair" indicates few or no clouds below 12,000 feet with no
significant weather and/or obstructions to visibility.

WVZ003-040300-
Northern Panhandle of West Virginia

CITY           SKY/WX    TMP DP  RH WIND       PRES   REMARKS
WHEELING       LGT RAIN  67  65  93 E6        29.88F FOG
$$

WVZ009-040300-
Northwest West Virginia

CITY           SKY/WX    TMP DP  RH WIND       PRES   REMARKS
PARKERSBURG    CLOUDY    66  64  93 N3        29.89S FOG
$$

WVZ006-040300-
Western West Virginia

CITY           SKY/WX    TMP DP  RH WIND       PRES   REMARKS
HUNTINGTON     LGT RAIN  68  68 100 CALM      29.86R
$$

WVZ015-040300-
West Central West Virginia

CITY           SKY/WX    TMP DP  RH WIND       PRES   REMARKS
CHARLESTON     FOG       71  70  96 CALM      29.86S VSB 1
$$

WVZ022-031-040300-
North Central West Virginia

CITY           SKY/WX    TMP DP  RH WIND       PRES   REMARKS
CLARKSBURG     CLOUDY    67  66  97 CALM      29.89R
MORGANTOWN     LGT RAIN  69  63  81 SE6       29.91R
$$

WVZ025-035-042-045-040300-
Southern West Virginia

CITY           SKY/WX    TMP DP  RH WIND       PRES   REMARKS
BECKLEY        MOCLDY    66  63  90 S6        29.96R
LOGAN          CLOUDY    72  68  88 CALM      29.87R
BLUEFIELD      LGT RAIN  66  63  90 SW3       29.99R
LEWISBURG      CLOUDY    66  64  91 CALM      29.97S
$$

WVZ047-040300-
Northern Mountains of West Virginia

CITY           SKY/WX    TMP DP  RH WIND       PRES   REMARKS
ELKINS         MOCLDY    63  61  93 SE3       29.94S FOG
$$

WVZ052-040300-
Eastern Panhandle of West Virginia

CITY           SKY/WX    TMP DP  RH WIND       PRES   REMARKS
MARTINSBURG    CLOUDY    70  66  87 CALM      29.94R
PETERSBURG     CLOUDY    66  63  89 CALM      29.94F FOG
$$



USA.gov is the U.S. government's official web portal to all federal, state and local government web resources and services.